Preview of NWS' New Version of Forecast
This preview is not operational and should not be used for support decisions.

Regional Weather Roundup (RWR)

Issued by National Weather Service (NWS)

                            
000
ASUS45 KABQ 192110
RWRNM 
NEW MEXICO REGIONAL WEATHER ROUNDUP
NATIONAL WEATHER SERVICE ALBUQUERQUE NM
300 PM MDT MON AUG 19 2019

NOTE: "FAIR" MEANS FEW OR NO CLOUDS BELOW 12,000 FEET AGL WITH NO
       SIGNIFICANT WEATHER OR OBSTRUCTIONS TO VISION.

      THIS PRODUCT IS RELEASED AS TWO VERSIONS.  ONE VERSION NEAR
      THE TOP OF THE HOUR CONTAINING PRELIMINARY DATA FROM ALBUQUERQUE
      AND OTHER STATIONS.  A FINAL VERSION WITH ADDITIONAL DATA IS 
      ISSUED ABOUT 10 MINUTES AFTER THE HOUR.
 
NMZ501-503-504-510>518-192200-
NORTHWEST PLATEAU/NORTHCENTRAL MOUNTAINS
  
CITY           SKY/WX    TMP DP  RH WIND       PRES   REMARKS
FARMINGTON     FAIR      91  23   8 VRB3      30.15F                  
LOS ALAMOS       N/A     87  29  12 SE16G24   30.29F                  
SANTA FE       FAIR      91  33  12 S10       30.21F                  
TAOS             N/A     90  33  13 W18G26    30.27F                  
ANGEL FIRE     PTSUNNY   77  30  18 SE3       30.39F                  

$$
NMZ402-403-502-505>509-192200-
WESTCENTRAL MOUNTAINS/SOUTHWEST MOUNTAINS
  
CITY           SKY/WX    TMP DP  RH WIND       PRES   REMARKS
GALLUP         FAIR      90  26  10 VRB5      30.24F                  
GRANTS         FAIR      92  31  11 S10G16    30.23F                  
SILVER CITY    FAIR      93  35  13 N3        30.14F                  

$$
NMZ407-409-411-412-192200-
SOUTHERN DESERTS
  
CITY           SKY/WX    TMP DP  RH WIND       PRES   REMARKS
DEMING         FAIR      97  34  11 W6        30.07F                  
LAS CRUCES     PTSUNNY   96  38  13 E5        30.08F                  
HOLLOMAN AFB   CLOUDY    86  57  37 NE10      30.10F                  
ALAMOGORDO     FAIR      91  45  19 NW17      30.09F                  
T OR C         FAIR      97  35  11 S10G18    30.09F                  

$$
NMZ519>523-192200-
CENTRAL VALLEYS/CENTRAL HIGHLANDS
  
CITY           SKY/WX    TMP DP  RH WIND       PRES   REMARKS
ALBUQUERQUE    FAIR      94  35  12 SW7       30.13F                  
DOUBLE EAGLE   MOSUNNY   91  36  14 S10       30.18F                  
MORIARTY ARPT  FAIR      94  33  11 SW8       30.21F                  
CLINES CORNERS PTSUNNY   86  33  15 S10       30.29F                  
BELEN          FAIR      96  31  10 W5        30.12F                  
SOCORRO        FAIR      96  32  10 SE14G21   30.11F                  

$$
NMZ524>526-539-540-192200-
SOUTHCENTRAL MOUNTAINS
  
CITY           SKY/WX    TMP DP  RH WIND       PRES   REMARKS
RUIDOSO        FAIR      66  54  63 N5        30.33F                  

$$
NMZ527>531-192200-
NORTHEAST HIGHLANDS/NORTHEAST PLAINS
  
CITY           SKY/WX    TMP DP  RH WIND       PRES   REMARKS
LAS VEGAS      FAIR      90  33  13 SE9G29    30.25F                  
RATON          FAIR      93  40  15 S12G22    30.17F                  
CLAYTON        FAIR      97  48  18 S20       30.09F                  

$$
NMZ532>537-192200-
EASTCENTRAL PLAINS
  
CITY           SKY/WX    TMP DP  RH WIND       PRES   REMARKS
TUCUMCARI      FAIR      96  46  18 SW13      30.04S                  
CANNON AFB     CLOUDY    89  49  24 W7        30.11F                  
CLOVIS AIRPORT FAIR      91  49  23 W10       30.10F                  

$$
NMZ028-029-538-192200-
SOUTHEAST PLAINS
  
CITY           SKY/WX    TMP DP  RH WIND       PRES   REMARKS
ROSWELL        FAIR     101  54  20 NE10      30.02F HX  99           
ARTESIA        FAIR     100  52  19 SE5G13    30.02F HX  98           
CARLSBAD       FAIR     101  53  20 VRB3      29.96F HX  99           
HOBBS          MOSUNNY  100  43  14 SE14G20   30.01F HX  96           


$$